Weather History for Bradshaw AFB, HI

Change the Weather History Date:

Thursday, January 2, 2014

  Actual Average Record
Temperature  
Mean Temperature 54 °F -  
Max Temperature 64 °F 63 °F 73 °F (2003)
Min Temperature 43 °F 42 °F 37 °F (2003)
Degree Days  
Heating Degree Days 12    
Growing Degree Days 4 (Base 50)    
Moisture  
Dew Point 41 °F    
Average Humidity 66    
Maximum Humidity 96    
Minimum Humidity 41    
Precipitation  
Precipitation 0.00 in - - ()
Sea Level Pressure  
Sea Level Pressure 30.18 in    
Wind  
Wind Speed 4 mph (West)    
Max Wind Speed 10 mph    
Max Gust Speed 18 mph    
Visibility 10 miles    
Events      
Averages and records for this station are not official NWS values.
T = Trace of Precipitation, MM = Missing Value Source: NWS Daily Summary

Daily Weather History Graph

Daily Weather History Graph

Search for Another Location

Airport:

Trip Planner

Search our weather history database for the weather conditions in past years. The results will help you decide how hot, cold, wet, or windy it might be!

Date:

Astronomy

Jan. 02, 2014 Rise Set
Actual Time 6:57 AM HST 5:55 PM HST
Civil Twilight 6:33 AM HST 6:19 PM HST
Nautical Twilight 6:06 AM HST 6:46 PM HST
Astronomical Twilight 5:39 AM HST 7:13 PM HST
Moon 8:02 AM HST (1/2) 7:47 PM HST (1/2)
Length of Visible Light 11h 46m
Length of Day
10h 58m
Waxing Crescent, 3% of the Moon is Illuminated
Jan 2
Waxing Crescent
Jan 7
First Quarter
Jan 15
Full
Jan 23
Last Quarter
Jan 30
New

Hourly Weather History & Observations

Time (HST) Temp. Windchill Dew Point Humidity Pressure Visibility Wind Dir Wind Speed Gust Speed Precip Events Conditions
12:56 AM 47.7 °F - 43.2 °F 84% 30.23 in 6.0 mi SSE 1.2 mph - N/A   Clear
1:36 AM 44.6 °F - 42.8 °F 93% 30.23 in 2.8 mi NNE 2.3 mph - N/A   Clear
1:56 AM 44.2 °F 41.8 °F 43.2 °F 96% 30.22 in 2.8 mi ESE 4.6 mph - N/A   Clear
2:01 AM 44.6 °F 42.2 °F 42.8 °F 93% 30.22 in 3.0 mi ESE 4.6 mph - N/A   Clear
2:56 AM 43.0 °F 40.3 °F 41.4 °F 94% 30.20 in 4.0 mi East 4.6 mph - N/A   Clear
3:56 AM 45.0 °F - 37.8 °F 76% 30.18 in 11.0 mi NNE 2.3 mph - N/A   Clear
4:56 AM 44.1 °F - 39.0 °F 82% 30.18 in 11.0 mi Calm Calm - N/A   Clear
5:56 AM 43.7 °F - 35.8 °F 74% 30.19 in 12.0 mi ESE 2.3 mph - N/A   Clear
6:56 AM 47.1 °F - 33.3 °F 59% 30.20 in 12.0 mi WNW 2.3 mph - N/A   Clear
7:56 AM 51.1 °F - 37.6 °F 60% 30.22 in 12.0 mi ESE 1.2 mph - N/A   Clear
8:56 AM 59.0 °F - 37.2 °F 44% 30.23 in 12.0 mi Calm Calm - N/A   Clear
9:56 AM 61.2 °F - 41.5 °F 48% 30.23 in 12.0 mi WSW 3.5 mph - N/A   Clear
10:56 AM 62.8 °F - 38.5 °F 41% 30.21 in 12.0 mi West 6.9 mph - N/A   Clear
11:56 AM 63.5 °F - 47.5 °F 56% 30.19 in 12.0 mi WSW 8.1 mph - N/A   Clear
12:56 PM 61.2 °F - 49.3 °F 65% 30.16 in 12.0 mi West 6.9 mph 17.3 mph N/A   Partly Cloudy
1:56 PM 64.8 °F - 47.5 °F 53% 30.13 in 12.0 mi West 10.4 mph 18.4 mph N/A   Clear
2:56 PM 63.9 °F - 48.0 °F 56% 30.11 in 12.0 mi WSW 5.8 mph 17.3 mph N/A   Clear
3:56 PM 62.1 °F - 47.7 °F 59% 30.11 in 12.0 mi WSW 6.9 mph - N/A   Clear
4:56 PM 59.5 °F - 48.6 °F 67% 30.13 in 12.0 mi WSW 6.9 mph - N/A   Partly Cloudy
5:56 PM 55.8 °F - 46.9 °F 72% 30.14 in 12.0 mi WSW 6.9 mph - N/A   Clear
6:56 PM 52.7 °F - 47.5 °F 82% 30.15 in 12.0 mi WNW 2.3 mph - N/A   Clear
7:56 PM 52.5 °F - 38.8 °F 60% 30.16 in 12.0 mi NW 2.3 mph - N/A   Clear
8:56 PM 51.4 °F - 33.1 °F 50% 30.17 in 12.0 mi NW 2.3 mph - N/A   Clear
9:56 PM 49.5 °F - 33.3 °F 54% 30.17 in 12.0 mi North 5.8 mph - N/A   Clear
10:56 PM 51.3 °F - 36.0 °F 56% 30.16 in 12.0 mi NW 5.8 mph - N/A   Clear
11:56 PM 51.4 °F - 32.9 °F 49% 30.16 in 12.0 mi NNW 4.6 mph - N/A   Partly Cloudy